星链-1687 (STARLINK-1687 )

导读 | 豆包AI

STARLINK-1687是美国太空探索技术公司SpaceX星链星座的一员,于北京时间2020年10月6日发射升空。作为星链互联网卫星星座的组网卫星,它承担着为全球范围提供低延迟、高速率宽带互联网接入服务的任务,运行于近地轨道,属于美国打造的全球卫星互联网系统的组成部分。

Basic Information
目录编号:
46541
目录名称:
STARLINK-1687
国际标识:
2020-070K
轨道中心:
EARTH
卫星名称:
星链-1687
卫星全名:
星链-1687 (STARLINK-1687 )
卫星状态:
已陨落 最后检测时间 2026-03-06
发射日期:
2020-10-06 UTC
国别 :
美国 (US)
星等 :
--
Orbit Information
数据来源 国际轨道数据
星历时间: 2026-03-06T00:56:49+0800
轨道信息已过期8天
半长轴: 6552.768km
偏心率: 0.000289
轨道倾角: 53.022°
近地点辐角 337.970°
升交点赤经 110.614°
平近点角 22.122°
近地点: 172.737km
远地点: 176.525km
周期: 87.983分钟
每日圈数: 16.366871
Detailed Information
固有亮度:
5
最大亮度:
2.5
卫星平台:
Starlink V1.0
覆盖范围:
全球
运营商:
太空探索技术公司
运营商所在国:
美国
制造商(研发单位):
太空探索技术公司
制造商所在国:
美国
使用方式:
暂无
Satellite Introduction
星链(Starlink)计划是由太空探索技术公司(SpaceX)提出的一个巨型低轨卫星互联网星座项目,计划在2019年至2024年间在太空搭建由约1.2万颗卫星组成的“星链”网络,其中1584颗将部署在地球上空550千米处的近地轨道,并从2020年开始工作。该卫星仍在工作。